星链-37951(STARLINK-37951)

导读

STARLINK-37951(NORAD编号69684)是SpaceX星链低轨宽带星座的组网卫星,为2026年新发射的V2系列迭代星,目前处于稳定在轨状态,运行于约480-550公里高度的近地轨道,工作在Ku/Ka频段,配备激光星间链路。该卫星是星链全球覆盖组网的组成单元,可为全球偏远地区、航空航海及应急场景提供高速低延迟宽带互联网接入服务,单星下行容量可达20Gbps左右,时延约20-25ms,服务于星链高速扩容的部署目标。

基本信息
目录编号:
69684
目录名称:
STARLINK-37951
国际标识:
2026-145H
轨道中心:
EARTH
卫星名称:
星链-37951
卫星全名:
星链-37951(STARLINK-37951)
卫星状态:
在轨 (已飞行72 天)
发射日期:
2026-06-25 UTC
国别 :
美国 (US)
星等 :
--
轨道信息
数据来源 国际轨道数据
星历时间: 2026-09-04T10:54:38+0800
1天前
查看轨道信息
半长轴: 6722.278km
偏心率: 0.0002036
轨道倾角: 97.285°
近地点辐角 69.489°
升交点赤经 96.470°
平近点角 290.659°
近地点: 342.772km
远地点: 345.51km
周期: 91.419分钟
每日圈数: 15.751724
详细信息
固有亮度:
5
最大亮度:
2.5
卫星平台:
Starlink V1.0
覆盖范围:
全球
运营商:
太空探索技术公司
运营商所在国:
美国
制造商(研发单位):
太空探索技术公司
制造商所在国:
美国
使用方式:
暂无
卫星简介
Starlink 计划是 SpaceX 推出的全球卫星互联网项目,通过发射低轨道卫星,为全球尤其是偏远地区提供高速、低延迟的互联网服务。自 2019 年起,Starlink 已部署数千颗卫星,旨在缩小全球数字鸿沟,推动互联网普及。该项目还为军事、航空等行业提供通信支持,带来广泛经济效益。
2D轨道图
3D轨道图
轨道高度分析图
轨道倾角分析图
轨道综合分析图
查看轨道综合分析图